Regional Weather Roundup
Issued by NWS

Home | Current Version | Previous Version | Text Only | Print | Product List | Glossary On
Versions: 1 2 3 4 5 6 7 8 9 10 11 12 13 14 15 16 17 18 19 20 21 22 23 24 25 26 27 28 29 30 31 32 33 34 35 36 37 38 39 40 41 42 43 44 45 46 47 48 49 50
000
ASUS43 KLMK 301302
RWRKY
KENTUCKY REGIONAL WEATHER ROUNDUP
NATIONAL WEATHER SERVICE LOUISVILLE KY
900 AM EDT THU OCT 30 2014

NOTE "FAIR" INDICATES FEW OR NO CLOUDS BELOW 12,000 FEET
WITH NO SIGNIFICANT WEATHER AND/OR OBSTRUCTIONS TO VISIBILITY.

KYZ001>023-026-027-061>063-070>075-301400-
WESTERN AND SOUTH CENTRAL KENTUCKY

CITY           SKY/WX    TMP DP  RH WIND       PRES   REMARKS
PADUCAH        CLEAR     35  35 100 CALM      30.17R
HENDERSON      CLEAR     34  30  86 CALM      30.18R
OWENSBORO      CLEAR     37  36  96 CALM      30.18S
HOPKINSVILLE   CLEAR     38  38  99 S1        30.17S
BOWLING GREEN  CLEAR     38  35  89 CALM      30.18R
GLASGOW        CLEAR     36  36 100 CALM      30.17R
$$

KYZ024-025-028>034-038-045-046-053-301400-
NORTH CENTRAL KENTUCKY

CITY           SKY/WX    TMP DP  RH WIND       PRES   REMARKS
LOUISVILLE/SDF PTCLDY    42  36  79 SW7       30.18R
LOUISVILLE/LOU CLEAR     38  35  89 NW3       30.19R
FORT KNOX      CLEAR     35  33  93 N1        30.16S
$$

KYZ035>037-039>044-047>052-055>060-089>105-301400-
NORTHEAST KENTUCKY

CITY           SKY/WX    TMP DP  RH WIND       PRES   REMARKS
LEXINGTON      CLOUDY    37  34  89 CALM      30.17R
COVINGTON      PTCLDY    38  33  82 CALM      30.16S
FRANKFORT      CLOUDY    37  35  92 CALM      30.16R
$$

KYZ054-064>069-076>088-106>120-301400-
SOUTHEAST KENTUCKY

CITY           SKY/WX    TMP DP  RH WIND       PRES   REMARKS
JACKSON        MOSUNNY   42  33  70 CALM      30.15R
LONDON         SUNNY     41  36  82 N3        30.15R
SOMERSET       SUNNY     36  36 100 CALM      30.17R
MIDDLESBORO    FOG       35  35 100 CALM      30.15R VSB<1/4
MONTICELLO     SUNNY     36  35  96 CALM      30.18R
$$




USA.gov is the U.S. government's official web portal to all federal, state and local government web resources and services.